Location: Bay Shore Mobile Home Park
(38.5762°N, 75.0841°W)
Time: 04:15:12
(UTC+00:00)

ISS - Pass Details

Date: 23 January 2026
Orbit: 413 x 429 km, 51.6° (Epoch: 10 February)

Event Time Altitude Azimuth Distance (km) Brightness Sun altitude
Rises 23:55:10 0° 318° (NW) 2,368 0.5 -20.1°
Reaches altitude 10° 23:57:54 10° 341° (NNW) 1,506 -0.8 -20.6°
Enters shadow 23:58:31 12° 351° (N) 1,365 -1.2 -20.7°
